QPF
0.00 0.00 0.00 0.00 0.00 0.00 0.00 0.00 0.00 0.00 0.00 0.00 0.00 0.00 0.00 0.00 0.00 0.00 0.00 0.00 0.00 0.00 0.00 0.00 0.00 0.00 0.00 0.00 0.00 0.00 0.00 0.00 0.00 0.00 0.00 0.00 0.00 0.00 0.00 0.00 0.00 0.00 0.00 0.00 0.00 0.00 0.00
0.01 0.00 0.00 0.00 0.00 0.00 0.00 0.00 0.00 0.00 0.00 0.00 0.00 0.00 0.00 0.00 0.00 0.00 0.00 0.00 0.00 0.00 0.00 0.00 0.00 0.00 0.00 0.00 0.00 0.00 0.00 0.00 0.00 0.00 0.00 0.00 0.00 0.00 0.00 0.00 0.00 0.00 0.00 0.00 0.00 0.00 0.00
0.01 0.00 0.00 0.00 0.00 0.00 0.00 0.00 0.00 0.00 0.00 0.00 0.00 0.00 0.00 0.00 0.00 0.00 0.00 0.00 0.00 0.00 0.00 0.00 0.00 0.00 0.00 0.00 0.00 0.00 0.00 0.00 0.00 0.00 0.00 0.00 0.00 0.00 0.00 0.00 0.00 0.00 0.00 0.00 0.00 0.00 0.00
0.01 0.01 0.00 0.00 0.00 0.00 0.00 0.00 0.00 0.00 0.00 0.00 0.00 0.00 0.00 0.00 0.00 0.00 0.00 0.00 0.00 0.00 0.00 0.00 0.00 0.00 0.00 0.00 0.00 0.00 0.00 0.00 0.00 0.00 0.00 0.00 0.00 0.00 0.00 0.00 0.00 0.00 0.00 0.00 0.00 0.00 0.00
0.02 0.02 0.01 0.00 0.00 0.00 0.00 0.00 0.00 0.00 0.00 0.00 0.00 0.00 0.00 0.00 0.00 0.00 0.00 0.00 0.00 0.00 0.00 0.00 0.00 0.00 0.00 0.00 0.00 0.00 0.00 0.00 0.00 0.00 0.00 0.00 0.00 0.00 0.00 0.00 0.00 0.00 0.00 0.00 0.00 0.00 0.00
0.01 0.01 0.02 0.01 0.00 0.00 0.00 0.00 0.00 0.00 0.00 0.00 0.00 0.00 0.00 0.01 0.01 0.01 0.01 0.00 0.00 0.00 0.00 0.00 0.00 0.00 0.00 0.00 0.00 0.00 0.00 0.00 0.00 0.00 0.00 0.00 0.00 0.00 0.00 0.00 0.00 0.00 0.00 0.00 0.00 0.00 0.00
0.01 0.01 0.00 0.01 0.01 0.00 0.00 0.00 0.00 0.00 0.00 0.01 0.01 0.01 0.01 0.00 0.00 0.01 0.01 0.00 0.00 0.00 0.00 0.00 0.00 0.00 0.00 0.00 0.00 0.00 0.00 0.00 0.00 0.00 0.00 0.00 0.00 0.00 0.00 0.00 0.00 0.00 0.00 0.00 0.00 0.00 0.00
0.01 0.01 0.00 0.00 0.00 0.00 0.00 0.00 0.00 0.00 0.00 0.00 0.01 0.01 0.00 0.00 0.00 0.00 0.01 0.00 0.00 0.00 0.00 0.00 0.00 0.00 0.00 0.00 0.00 0.00 0.00 0.00 0.00 0.00 0.00 0.00 0.00 0.00 0.00 0.00 0.00 0.00 0.00 0.00 0.00 0.00 0.00
0.03 0.01 0.00 0.01 0.01 0.01 0.00 0.00 0.00 0.01 0.00 0.00 0.00 0.00 0.00 0.00 0.00 0.00 0.00 0.00 0.00 0.00 0.00 0.00 0.00 0.00 0.00 0.00 0.00 0.00 0.00 0.00 0.00 0.00 0.00 0.00 0.00 0.00 0.00 0.00 0.00 0.00 0.00 0.00 0.00 0.00 0.00
0.04 0.03 0.02 0.01 0.01 0.02 0.02 0.01 0.01 0.02 0.01 0.00 0.00 0.00 0.00 0.00 0.00 0.00 0.00 0.00 0.00 0.00 0.00 0.00 0.00 0.00 0.00 0.00 0.00 0.00 0.00 0.00 0.00 0.00 0.00 0.00 0.00 0.00 0.00 0.00 0.00 0.00 0.00 0.00 0.00 0.00 0.00
0.06 0.03 0.03 0.02 0.01 0.01 0.01 0.01 0.01 0.02 0.02 0.00 0.00 0.00 0.00 0.00 0.00 0.00 0.00 0.00 0.00 0.00 0.00 0.00 0.00 0.00 0.00 0.00 0.00 0.00 0.00 0.00 0.00 0.00 0.00 0.00 0.00 0.00 0.00 0.00 0.00 0.00 0.00 0.00 0.00 0.00 0.00
0.04 0.06 0.03 0.02 0.01 0.01 0.02 0.01 0.01 0.01 0.01 0.01 0.01 0.00 0.00 0.00 0.00 0.00 0.00 0.00 0.00 0.00 0.00 0.00 0.00 0.00 0.00 0.00 0.00 0.00 0.00 0.00 0.00 0.00 0.00 0.00 0.00 0.00 0.00 0.00 0.00 0.00 0.00 0.00 0.00 0.00 0.00
0.01 0.03 0.03 0.01 0.01 0.01 0.00 0.01 0.01 0.01 0.00 0.00 0.01 0.00 0.00 0.00 0.00 0.00 0.00 0.00 0.00 0.00 0.00 0.00 0.00 0.00 0.00 0.00 0.00 0.00 0.00 0.00 0.00 0.00 0.00 0.00 0.00 0.00 0.00 0.00 0.00 0.00 0.00 0.00 0.00 0.00 0.00
0.01 0.01 0.02 0.01 0.01 0.02 0.01 0.00 0.01 0.01 0.00 0.00 0.00 0.00 0.00 0.00 0.00 0.00 0.00 0.00 0.00 0.00 0.00 0.00 0.00 0.00 0.00 0.00 0.00 0.00 0.00 0.00 0.00 0.00 0.00 0.00 0.00 0.00 0.00 0.00 0.00 0.00 0.00 0.00 0.00 0.00 0.00
0.01 0.02 0.02 0.01 0.01 0.01 0.01 0.01 0.00 0.01 0.00 0.01 0.00 0.00 0.01 0.00 0.00 0.00 0.00 0.00 0.00 0.00 0.00 0.00 0.00 0.00 0.00 0.00 0.00 0.00 0.00 0.00 0.00 0.00 0.00 0.00 0.00 0.00 0.00 0.00 0.00 0.00 0.00 0.00 0.01 0.00 0.00
0.02 0.01 0.01 0.01 0.01 0.01 0.01 0.01 0.01 0.01 0.01 0.00 0.00 0.00 0.00 0.00 0.02 0.05 0.03 0.00 0.00 0.00 0.00 0.00 0.00 0.00 0.00 0.00 0.00 0.00 0.00 0.00 0.00 0.00 0.00 0.00 0.00 0.00 0.00 0.00 0.00 0.00 0.00 0.01 0.01 0.01 0.00
0.01 0.00 0.00 0.01 0.01 0.01 0.01 0.01 0.00 0.01 0.02 0.00 0.00 0.00 0.00 0.00 0.00 0.02 0.00 0.00 0.00 0.00 0.00 0.00 0.00 0.00 0.00 0.00 0.00 0.00 0.00 0.00 0.00 0.00 0.00 0.00 0.00 0.00 0.00 0.00 0.00 0.00 0.00 0.00 0.02 0.01 0.01
0.00 0.00 0.00 0.00 0.00 0.00 0.01 0.01 0.01 0.01 0.03 0.02 0.00 0.00 0.00 0.00 0.00 0.00 0.00 0.00 0.00 0.00 0.00 0.00 0.00 0.00 0.00 0.00 0.00 0.00 0.00 0.00 0.00 0.00 0.00 0.00 0.00 0.00 0.00 0.00 0.00 0.00 0.00 0.00 0.02 0.01 0.01
0.00 0.00 0.00 0.00 0.00 0.00 0.00 0.00 0.04 0.05 0.07 0.05 0.00 0.00 0.00 0.00 0.00 0.00 0.00 0.00 0.00 0.00 0.00 0.00 0.00 0.00 0.00 0.00 0.00 0.00 0.00 0.00 0.00 0.00 0.00 0.00 0.00 0.00 0.00 0.00 0.00 0.00 0.00 0.00 0.00 0.00 0.00
0.00 0.00 0.00 0.00 0.00 0.00 0.00 0.00 0.00 0.01 0.03 0.02 0.00 0.00 0.00 0.00 0.00 0.00 0.00 0.00 0.00 0.00 0.00 0.00 0.00 0.00 0.00 0.00 0.00 0.00 0.00 0.00 0.00 0.00 0.00 0.00 0.00 0.00 0.00 0.00 0.00 0.00 0.00 0.00 0.00 0.00 0.00
0.00 0.00 0.00 0.00 0.00 0.00 0.00 0.00 0.00 0.00 0.00 0.01 0.01 0.00 0.00 0.00 0.00 0.00 0.00 0.00 0.00 0.00 0.00 0.01 0.01 0.00 0.00 0.01 0.00 0.00 0.00 0.00 0.00 0.00 0.00 0.00 0.00 0.00 0.00 0.00 0.00 0.00 0.00 0.00 0.00 0.00 0.00
0.00 0.00 0.00 0.00 0.00 0.00 0.00 0.00 0.00 0.00 0.00 0.00 0.00 0.00 0.00 0.00 0.00 0.01 0.01 0.01 0.01 0.00 0.00 0.01 0.00 0.00 0.00 0.01 0.01 0.00 0.01 0.01 0.01 0.00 0.00 0.00 0.01 0.00 0.00 0.00 0.00 0.00 0.00 0.00 0.00 0.00 0.00
0.00 0.00 0.00 0.00 0.00 0.00 0.00 0.00 0.00 0.00 0.00 0.00 0.00 0.00 0.00 0.01 0.01 0.01 0.01 0.01 0.01 0.00 0.00 0.00 0.00 0.00 0.01 0.00 0.00 0.00 0.00 0.00 0.00 0.00 0.00 0.00 0.01 0.00 0.00 0.00 0.00 0.00 0.00 0.00 0.00 0.00 0.00
0.00 0.00 0.00 0.00 0.00 0.00 0.00 0.00 0.00 0.00 0.00 0.00 0.00 0.00 0.01 0.01 0.02 0.01 0.01 0.01 0.00 0.00 0.00 0.00 0.00 0.00 0.00 0.00 0.00 0.00 0.00 0.00 0.00 0.00 0.00 0.00 0.00 0.00 0.00 0.00 0.00 0.00 0.00 0.00 0.00 0.00 0.00
0.00 0.00 0.00 0.00 0.00 0.00 0.00 0.00 0.00 0.00 0.00 0.00 0.00 0.00 0.00 0.00 0.01 0.00 0.00 0.00 0.00 0.00 0.00 0.00 0.00 0.00 0.00 0.00 0.00 0.00 0.00 0.00 0.00 0.00 0.00 0.00 0.00 0.00 0.00 0.00 0.00 0.00 0.00 0.00 0.00 0.00 0.00
0.00 0.00 0.00 0.00 0.00 0.00 0.00 0.00 0.00 0.00 0.00 0.00 0.00 0.00 0.00 0.01 0.01 0.00 0.00 0.00 0.00 0.00 0.00 0.00 0.00 0.00 0.00 0.00 0.00 0.00 0.00 0.00 0.00 0.00 0.00 0.00 0.00 0.00 0.00 0.00 0.00 0.00 0.00 0.00 0.00 0.00 0.00
0.00 0.00 0.00 0.00 0.00 0.00 0.00 0.00 0.00 0.00 0.00 0.00 0.00 0.00 0.00 0.00 0.00 0.00 0.00 0.00 0.00 0.00 0.00 0.00 0.00 0.00 0.00 0.00 0.00 0.00 0.00 0.00 0.00 0.00 0.00 0.00 0.00 0.00 0.00 0.00 0.00 0.00 0.00 0.00 0.00 0.01 0.00
0.01 0.01 0.00 0.00 0.00 0.00 0.00 0.00 0.00 0.00 0.00 0.00 0.00 0.00 0.00 0.00 0.00 0.00 0.00 0.00 0.00 0.00 0.00 0.00 0.00 0.00 0.00 0.00 0.00 0.00 0.00 0.00 0.00 0.00 0.00 0.00 0.00 0.01 0.02 0.02 0.01 0.00 0.00 0.01 0.01 0.00 0.00
0.01 0.02 0.01 0.00 0.00 0.00 0.00 0.00 0.00 0.00 0.00 0.00 0.00 0.00 0.00 0.00 0.00 0.00 0.00 0.00 0.00 0.00 0.00 0.00 0.00 0.00 0.00 0.00 0.00 0.00 0.00 0.00 0.00 0.00 0.00 0.00 0.00 0.00 0.00 0.01 0.00 0.00 0.00 0.00 0.00 0.00 0.00
MSLP
1009.48 1009.83 1010.29 1010.68 1011.20 1011.87 1012.42 1012.93 1013.45 1013.96 1014.36 1014.66 1015.10 1015.65 1016.08 1016.45 1016.70 1016.97 1017.24 1017.41 1017.52 1017.66 1017.79 1017.77 1017.57 1017.16 1016.04 1013.98 1011.91 1011.22 1011.62 1011.61 1011.48 1011.07 1010.58 1009.89 1009.55 1008.70 1007.93 1007.12 1006.38 1006.07 1005.83 1005.43 1004.91 1004.35 1003.84
1008.55 1009.09 1009.35 1009.79 1010.19 1010.83 1011.48 1012.21 1012.80 1013.23 1013.84 1014.27 1014.69 1014.96 1015.60 1016.13 1016.26 1016.51 1016.81 1017.12 1017.42 1017.58 1017.69 1017.67 1017.62 1017.50 1016.44 1013.99 1011.46 1010.72 1010.89 1011.23 1011.02 1010.65 1010.39 1010.00 1009.60 1009.20 1008.61 1007.92 1007.09 1006.29 1005.68 1005.10 1004.63 1004.03 1003.65
1007.88 1008.17 1008.73 1009.00 1009.39 1009.96 1010.68 1011.27 1012.01 1012.60 1013.12 1013.76 1014.18 1014.53 1015.19 1015.75 1016.13 1016.19 1016.46 1016.81 1017.17 1017.37 1017.54 1017.63 1017.64 1017.36 1015.85 1013.22 1011.34 1010.82 1010.92 1011.09 1011.07 1010.87 1010.64 1010.33 1010.20 1009.90 1009.26 1008.32 1007.36 1006.82 1006.11 1005.31 1004.55 1003.88 1003.23
1007.03 1007.41 1007.77 1008.27 1008.63 1009.14 1009.84 1010.59 1011.16 1011.81 1012.54 1013.16 1013.54 1014.08 1014.65 1015.35 1015.87 1015.91 1016.23 1016.70 1017.02 1017.33 1017.47 1017.56 1017.48 1017.19 1014.98 1012.44 1011.28 1010.75 1010.60 1010.40 1010.54 1010.70 1010.68 1010.72 1010.73 1010.28 1009.92 1009.27 1008.15 1007.35 1006.38 1005.18 1003.78 1002.93 1002.21
1006.36 1006.61 1006.94 1007.46 1007.86 1008.29 1008.95 1009.62 1010.44 1010.85 1011.77 1012.38 1012.95 1013.46 1014.10 1014.65 1015.48 1015.75 1016.11 1016.66 1016.88 1017.29 1017.49 1017.54 1017.21 1016.39 1013.07 1010.87 1010.87 1010.38 1010.38 1010.09 1010.15 1010.07 1010.16 1010.38 1010.46 1010.25 1010.00 1009.37 1008.56 1007.50 1005.78 1004.69 1003.04 1001.92 1001.41
1005.45 1005.81 1006.16 1006.48 1006.99 1007.52 1008.16 1008.74 1009.48 1010.15 1010.84 1011.65 1012.23 1012.92 1013.57 1014.24 1014.96 1015.66 1016.21 1016.70 1017.02 1017.40 1017.38 1016.63 1016.11 1015.68 1012.23 1010.02 1009.19 1009.74 1009.55 1009.54 1009.65 1009.69 1010.10 1010.23 1010.13 1009.58 1009.19 1009.01 1007.16 1006.37 1004.98 1003.73 1002.59 1001.81 1001.21
1004.53 1004.94 1005.26 1005.66 1006.07 1006.64 1007.31 1007.88 1008.57 1009.43 1009.99 1010.74 1011.41 1012.09 1013.08 1013.88 1014.67 1015.37 1016.55 1017.07 1017.74 1016.97 1015.68 1013.74 1012.56 1011.84 1009.83 1009.34 1009.49 1009.41 1009.28 1009.53 1009.34 1009.46 1009.64 1009.37 1009.23 1008.46 1008.05 1007.62 1007.04 1006.33 1005.42 1004.22 1003.15 1002.21 1001.62
1003.55 1004.05 1004.36 1004.76 1005.15 1005.70 1006.40 1007.04 1007.73 1008.58 1009.26 1010.11 1010.71 1011.62 1012.60 1013.38 1014.13 1014.68 1015.35 1015.76 1014.86 1014.30 1013.16 1012.33 1011.31 1010.59 1009.93 1009.54 1009.28 1008.61 1008.58 1009.38 1008.95 1008.85 1008.77 1008.63 1007.74 1007.60 1007.35 1006.90 1006.30 1005.57 1005.06 1004.51 1003.80 1003.20 1002.67
1002.73 1003.11 1003.44 1003.77 1004.26 1004.83 1005.41 1006.07 1006.88 1007.72 1008.47 1009.42 1010.21 1010.94 1011.94 1013.20 1014.12 1014.88 1015.16 1015.00 1014.59 1014.13 1012.82 1010.72 1009.35 1008.47 1008.88 1009.05 1008.60 1008.44 1008.27 1008.66 1008.54 1008.22 1007.99 1007.37 1006.39 1006.04 1006.22 1006.51 1006.06 1005.61 1005.46 1005.23 1004.67 1004.08 1003.14
1001.64 1002.20 1002.61 1002.96 1003.38 1003.97 1004.50 1004.91 1005.84 1006.85 1007.68 1008.68 1009.64 1010.81 1011.70 1012.97 1014.55 1014.41 1015.06 1014.96 1014.63 1014.53 1013.11 1009.70 1007.42 1006.26 1006.98 1008.17 1007.63 1007.66 1007.85 1007.79 1008.24 1008.04 1007.73 1006.61 1006.38 1005.88 1005.99 1006.02 1006.32 1005.65 1005.64 1005.56 1005.21 1004.84 1003.74
1000.75 1001.22 1001.85 1002.09 1002.59 1002.92 1003.42 1004.19 1004.78 1005.84 1006.95 1008.00 1009.09 1010.30 1011.38 1011.56 1012.76 1013.59 1013.36 1014.98 1014.72 1014.40 1011.92 1006.67 1006.31 1006.46 1006.03 1007.19 1006.78 1007.38 1007.33 1007.67 1007.79 1007.74 1007.73 1006.38 1006.14 1005.99 1005.85 1006.09 1006.18 1005.80 1006.13 1006.14 1006.18 1006.07 1005.31
999.74 1000.45 1001.17 1001.41 1001.85 1002.25 1002.50 1003.33 1004.12 1005.01 1006.24 1007.31 1008.26 1009.57 1010.84 1011.84 1011.89 1012.11 1012.86 1014.98 1014.72 1014.10 1009.57 1005.92 1006.40 1006.76 1006.59 1006.99 1006.88 1007.15 1007.70 1007.95 1007.78 1007.99 1007.54 1006.76 1006.49 1006.30 1006.09 1006.22 1006.64 1006.99 1006.99 1006.97 1007.09 1006.82 1005.69
998.98 999.68 1000.46 1000.93 1001.53 1001.98 1002.32 1002.92 1003.75 1004.69 1005.79 1007.06 1008.06 1009.19 1010.39 1010.64 1010.40 1012.07 1013.00 1014.46 1014.08 1011.16 1006.77 1005.43 1005.83 1006.14 1006.40 1006.45 1006.82 1006.94 1007.03 1007.23 1007.27 1007.81 1007.28 1006.92 1006.22 1006.06 1006.16 1006.48 1007.04 1007.49 1007.69 1007.63 1007.67 1007.41 1006.16
998.28 998.86 999.89 1000.44 1001.23 1001.34 1002.06 1002.81 1003.78 1004.81 1005.81 1006.86 1007.94 1008.95 1009.68 1009.69 1009.97 1011.62 1012.41 1013.11 1011.68 1007.95 1005.61 1004.63 1004.57 1005.29 1005.97 1005.67 1006.22 1006.33 1006.46 1006.74 1007.19 1006.62 1006.24 1006.00 1005.01 1004.83 1005.15 1005.57 1006.33 1006.78 1007.59 1007.80 1007.54 1007.55 1006.79
997.79 998.52 999.51 1000.14 1000.73 1000.97 1002.01 1002.92 1003.73 1004.98 1005.99 1007.04 1008.10 1009.02 1009.62 1010.09 1010.32 1010.87 1011.19 1011.14 1008.75 1006.51 1005.23 1004.47 1004.32 1005.11 1005.27 1005.11 1005.58 1005.94 1006.12 1006.21 1006.33 1006.60 1006.79 1005.95 1005.06 1004.93 1005.52 1005.57 1005.99 1006.81 1007.32 1007.96 1008.14 1008.60 1008.73
997.74 998.37 999.13 999.87 1000.48 1001.06 1001.91 1002.72 1003.87 1004.99 1006.30 1007.42 1008.43 1009.11 1010.11 1010.65 1010.03 1010.34 1010.55 1009.46 1007.32 1005.55 1004.92 1003.91 1003.99 1004.62 1004.16 1004.57 1005.65 1005.53 1005.70 1005.61 1006.11 1007.00 1006.93 1007.07 1006.64 1005.83 1006.22 1006.53 1006.53 1006.61 1007.73 1008.09 1008.94 1008.94 1008.54
997.68 998.30 999.27 999.44 1000.88 1001.70 1002.58 1002.75 1003.95 1005.07 1006.45 1007.65 1009.03 1010.04 1010.96 1010.59 1009.88 1009.90 1009.52 1008.65 1006.71 1005.50 1005.29 1004.40 1003.94 1004.02 1003.93 1004.06 1004.70 1004.97 1004.91 1005.86 1006.64 1007.45 1007.77 1007.87 1007.48 1006.54 1006.61 1007.31 1006.90 1007.28 1007.93 1008.87 1009.10 1009.44 1008.82
998.03 999.53 1000.15 1000.69 1000.80 1002.47 1003.75 1003.50 1004.15 1005.50 1007.10 1008.02 1009.35 1010.54 1011.55 1010.98 1010.42 1009.97 1009.41 1008.29 1007.21 1006.59 1006.37 1005.79 1005.71 1004.95 1004.34 1004.35 1004.21 1004.81 1005.10 1006.71 1007.42 1007.53 1008.19 1008.27 1008.33 1007.55 1007.18 1007.36 1007.94 1008.35 1009.09 1009.64 1010.04 1009.47 1009.30
999.40 1000.73 1001.43 1001.84 1002.72 1003.39 1004.02 1004.87 1005.43 1006.18 1006.83 1007.88 1009.48 1011.13 1011.81 1011.36 1011.26 1010.80 1010.11 1008.82 1007.82 1007.03 1007.07 1006.77 1006.21 1005.78 1005.13 1004.96 1004.96 1005.21 1006.61 1008.81 1009.04 1008.99 1009.28 1009.52 1009.78 1009.53 1008.67 1008.35 1008.53 1009.05 1009.45 1009.86 1009.72 1009.69 1008.98
1001.00 1001.95 1002.66 1003.36 1004.04 1004.49 1005.08 1005.72 1006.26 1006.50 1007.29 1007.77 1009.03 1010.53 1011.91 1012.13 1011.68 1011.07 1010.62 1009.35 1008.56 1007.75 1007.34 1007.03 1006.82 1006.57 1006.25 1005.97 1005.84 1006.40 1007.71 1009.24 1009.63 1009.84 1010.66 1011.12 1010.86 1010.65 1010.27 1009.60 1010.46 1010.47 1010.43 1010.43 1010.67 1010.07 1009.31
1002.33 1002.95 1003.55 1004.19 1004.68 1005.33 1005.86 1006.36 1006.87 1007.00 1007.23 1007.55 1008.90 1009.30 1009.98 1011.22 1011.45 1011.20 1010.81 1010.36 1009.12 1008.43 1008.35 1007.74 1007.85 1007.81 1007.22 1007.37 1007.25 1007.45 1008.60 1010.44 1010.29 1010.99 1011.37 1012.19 1012.43 1012.53 1012.18 1011.82 1011.70 1011.47 1010.87 1010.30 1010.14 1010.03 1009.74
1003.35 1003.88 1004.65 1005.44 1005.71 1006.04 1006.66 1006.79 1006.92 1007.53 1007.68 1007.75 1008.72 1008.49 1008.38 1009.38 1010.46 1010.86 1010.54 1010.40 1010.14 1009.19 1008.95 1008.50 1008.64 1008.80 1008.46 1008.50 1008.70 1009.13 1009.23 1009.97 1010.60 1011.22 1011.95 1012.58 1013.19 1013.77 1013.41 1013.32 1012.85 1012.07 1010.63 1010.11 1009.88 1009.55 1009.01
1004.41 1004.82 1005.39 1005.87 1006.45 1007.05 1007.57 1008.02 1008.17 1008.12 1007.97 1008.29 1008.66 1007.80 1007.81 1008.59 1009.33 1010.45 1010.14 1010.40 1010.66 1010.30 1010.59 1009.25 1009.47 1009.84 1010.19 1010.60 1010.33 1010.49 1011.01 1011.46 1011.44 1011.94 1012.32 1012.49 1013.30 1013.86 1013.13 1013.34 1012.64 1011.52 1010.20 1009.68 1009.18 1008.94 1008.50
1005.31 1005.62 1005.96 1006.43 1006.92 1007.47 1008.03 1008.23 1008.00 1007.99 1008.18 1008.00 1008.06 1008.29 1008.50 1008.74 1009.17 1009.37 1009.27 1010.00 1010.86 1010.95 1011.04 1010.35 1010.59 1010.97 1012.42 1012.24 1012.05 1012.23 1012.20 1012.10 1012.03 1011.99 1012.37 1012.81 1013.26 1013.92 1013.46 1013.85 1012.74 1010.51 1009.56 1009.23 1008.64 1008.05 1007.60
1006.01 1006.46 1006.84 1007.05 1007.49 1007.70 1007.97 1008.23 1008.40 1008.60 1008.80 1008.49 1008.92 1008.82 1008.79 1008.52 1008.22 1009.04 1009.71 1010.03 1010.90 1011.44 1011.72 1011.53 1011.84 1012.37 1012.24 1012.56 1013.32 1013.61 1013.50 1013.08 1012.48 1012.13 1012.36 1012.87 1013.47 1013.95 1013.75 1012.92 1011.87 1010.04 1009.20 1008.89 1008.23 1007.80 1007.48
1006.74 1006.97 1007.14 1007.31 1007.71 1008.34 1008.61 1008.97 1009.09 1009.12 1009.17 1009.03 1009.74 1009.35 1008.73 1008.55 1008.29 1008.59 1009.04 1009.33 1009.92 1010.17 1011.32 1011.78 1012.66 1012.87 1012.74 1013.48 1014.08 1013.87 1013.22 1012.52 1011.72 1011.10 1011.40 1012.24 1012.87 1013.64 1013.27 1012.72 1011.73 1009.06 1009.21 1008.66 1008.22 1007.62 1007.79
1007.31 1007.70 1007.92 1008.09 1008.62 1009.22 1009.47 1009.73 1009.99 1010.02 1010.01 1009.92 1010.41 1010.23 1009.66 1009.65 1009.37 1009.13 1009.09 1009.20 1009.73 1010.26 1011.55 1012.22 1013.53 1013.49 1013.59 1013.73 1014.16 1013.92 1013.29 1012.26 1011.41 1011.41 1011.55 1011.55 1012.06 1012.43 1012.45 1012.41 1011.13 1009.36 1009.50 1009.05 1008.73 1008.81 1008.54
1007.78 1008.28 1008.45 1008.85 1009.36 1009.73 1010.07 1010.40 1010.61 1010.65 1010.69 1010.67 1011.07 1010.85 1010.57 1010.56 1010.49 1010.38 1010.13 1009.83 1009.85 1010.21 1011.10 1011.96 1013.06 1013.31 1014.00 1014.10 1013.94 1013.48 1013.00 1012.14 1011.37 1011.38 1011.18 1011.18 1011.49 1011.49 1011.89 1011.85 1010.64 1009.32 1008.95 1009.01 1009.11 1008.79 1009.30
1008.29 1008.75 1009.10 1009.59 1009.91 1010.26 1010.66 1010.94 1011.12 1011.14 1011.25 1011.25 1011.07 1011.25 1010.95 1010.65 1011.03 1011.26 1011.01 1010.81 1010.71 1010.73 1011.04 1011.44 1012.03 1012.24 1012.99 1013.38 1013.22 1012.91 1012.58 1011.77 1011.47 1010.93 1010.87 1010.64 1010.69 1010.58 1010.77 1010.07 1009.58 1008.89 1008.38 1008.52 1009.36 1009.47 1008.87
Thickness
5625 5629 5631 5634 5635 5634 5635 5638 5638 5639 5641 5643 5645 5643 5643 5644 5646 5647 5649 5650 5653 5656 5658 5662 5666 5673 5686 5698 5711 5726 5730 5731 5733 5737 5735 5736 5732 5737 5734 5748 5756 5747 5754 5762 5770 5774 5777
5620 5621 5626 5628 5632 5631 5631 5630 5630 5633 5634 5635 5636 5638 5637 5636 5640 5642 5643 5643 5644 5646 5649 5652 5655 5660 5671 5679 5715 5722 5726 5723 5726 5728 5727 5730 5727 5732 5729 5732 5737 5749 5752 5759 5765 5767 5771
5610 5615 5616 5620 5625 5626 5624 5626 5625 5625 5626 5626 5628 5631 5629 5627 5628 5633 5635 5635 5634 5637 5639 5641 5644 5650 5662 5683 5704 5714 5716 5714 5717 5717 5712 5720 5721 5716 5721 5721 5741 5739 5730 5742 5752 5759 5758
5603 5607 5611 5612 5617 5619 5619 5619 5620 5620 5618 5618 5620 5621 5621 5618 5617 5623 5624 5623 5625 5625 5627 5629 5633 5637 5651 5686 5696 5704 5707 5709 5710 5710 5709 5711 5709 5706 5704 5715 5717 5712 5721 5712 5748 5754 5761
5591 5597 5602 5605 5609 5612 5614 5615 5614 5617 5615 5614 5614 5616 5615 5613 5609 5612 5613 5611 5614 5613 5614 5618 5625 5630 5653 5688 5681 5692 5696 5693 5696 5700 5702 5702 5697 5690 5693 5685 5682 5696 5689 5703 5726 5754 5751
5580 5586 5592 5598 5601 5604 5606 5610 5610 5611 5611 5609 5610 5610 5609 5607 5605 5603 5601 5601 5601 5602 5604 5612 5618 5619 5649 5665 5684 5681 5688 5689 5681 5684 5676 5677 5676 5674 5678 5671 5670 5683 5695 5710 5714 5736 5742
5567 5574 5582 5588 5594 5598 5599 5603 5604 5603 5606 5606 5606 5607 5601 5599 5597 5595 5587 5587 5588 5595 5608 5624 5635 5641 5658 5671 5673 5668 5676 5671 5673 5669 5654 5666 5656 5659 5672 5680 5684 5684 5686 5690 5709 5727 5720
5555 5561 5571 5578 5585 5590 5593 5594 5598 5598 5600 5599 5600 5599 5594 5593 5591 5588 5584 5588 5599 5605 5612 5623 5632 5642 5650 5657 5648 5661 5672 5653 5656 5650 5659 5655 5654 5669 5677 5679 5679 5682 5678 5678 5695 5707 5705
5539 5549 5557 5568 5575 5580 5585 5589 5592 5592 5595 5595 5592 5594 5590 5584 5579 5576 5577 5584 5588 5592 5596 5621 5638 5646 5644 5649 5645 5648 5659 5650 5645 5647 5651 5652 5669 5680 5674 5666 5666 5670 5663 5664 5669 5686 5696
5528 5535 5545 5555 5564 5570 5576 5583 5585 5585 5588 5588 5587 5583 5580 5575 5565 5569 5568 5570 5575 5576 5568 5610 5635 5651 5652 5643 5643 5655 5656 5649 5639 5637 5644 5656 5666 5665 5660 5658 5659 5651 5671 5666 5666 5661 5658
5515 5525 5532 5542 5551 5561 5568 5572 5579 5580 5579 5580 5579 5573 5571 5571 5567 5566 5577 5556 5565 5568 5564 5632 5635 5649 5650 5633 5645 5639 5651 5641 5629 5633 5636 5645 5649 5649 5648 5649 5658 5653 5663 5658 5652 5647 5651
5503 5512 5519 5530 5539 5547 5557 5563 5567 5570 5571 5574 5571 5565 5559 5551 5558 5567 5567 5552 5552 5546 5557 5615 5623 5616 5619 5621 5631 5638 5628 5634 5637 5625 5633 5640 5652 5647 5648 5651 5647 5647 5641 5643 5641 5638 5626
5489 5500 5508 5516 5524 5534 5542 5549 5554 5557 5559 5558 5557 5555 5548 5548 5561 5552 5553 5547 5535 5552 5614 5609 5610 5614 5611 5612 5615 5623 5621 5618 5618 5601 5611 5624 5632 5643 5646 5633 5637 5631 5621 5603 5598 5602 5613
5477 5489 5496 5506 5511 5522 5530 5535 5539 5540 5541 5542 5541 5539 5540 5544 5544 5542 5541 5533 5541 5588 5606 5616 5618 5612 5601 5615 5612 5615 5614 5610 5617 5624 5621 5615 5621 5637 5647 5640 5628 5627 5617 5602 5594 5597 5617
5470 5476 5486 5497 5506 5515 5516 5517 5524 5523 5525 5527 5527 5521 5522 5522 5529 5532 5535 5520 5554 5587 5601 5596 5605 5592 5595 5607 5609 5606 5604 5607 5614 5614 5598 5606 5615 5631 5629 5634 5631 5615 5602 5618 5598 5600 5581
5466 5469 5477 5490 5494 5504 5507 5506 5506 5509 5508 5509 5508 5504 5509 5509 5514 5520 5516 5529 5566 5587 5589 5596 5587 5594 5593 5595 5586 5593 5595 5608 5602 5601 5606 5597 5588 5613 5611 5616 5617 5612 5609 5589 5584 5571 5576
5459 5464 5471 5481 5485 5487 5491 5492 5496 5493 5493 5494 5490 5489 5480 5487 5503 5503 5503 5534 5562 5569 5574 5582 5586 5588 5592 5591 5584 5586 5592 5587 5591 5586 5590 5587 5586 5595 5597 5585 5591 5592 5585 5581 5584 5577 5567
5451 5449 5458 5462 5469 5466 5468 5470 5480 5479 5476 5477 5469 5463 5463 5471 5478 5466 5501 5533 5544 5537 5554 5558 5561 5570 5576 5584 5581 5583 5582 5563 5573 5577 5569 5576 5571 5570 5580 5590 5584 5578 5568 5566 5542 5562 5567
5438 5435 5438 5443 5444 5448 5452 5451 5456 5457 5456 5454 5443 5436 5441 5452 5460 5467 5489 5514 5522 5527 5528 5536 5545 5555 5563 5567 5561 5572 5552 5539 5544 5553 5548 5555 5545 5541 5556 5567 5569 5560 5561 5557 5563 5561 5556
5419 5418 5419 5421 5425 5431 5435 5438 5438 5442 5441 5445 5443 5435 5426 5426 5431 5459 5468 5486 5501 5514 5517 5529 5531 5537 5537 5543 5552 5543 5533 5526 5534 5533 5526 5529 5534 5533 5535 5549 5530 5527 5535 5544 5537 5530 5539
5405 5406 5407 5406 5410 5415 5418 5423 5425 5430 5431 5437 5428 5435 5439 5434 5432 5441 5455 5462 5488 5490 5495 5510 5509 5513 5522 5519 5526 5525 5523 5500 5518 5510 5515 5509 5500 5505 5516 5519 5514 5516 5527 5536 5530 5530 5517
5396 5399 5397 5394 5396 5403 5406 5411 5415 5415 5415 5420 5413 5429 5445 5452 5441 5439 5444 5450 5457 5479 5482 5490 5493 5499 5504 5503 5506 5496 5513 5505 5501 5501 5496 5497 5486 5477 5486 5489 5491 5496 5521 5524 5524 5525 5526
5386 5388 5389 5391 5392 5390 5387 5387 5392 5400 5408 5407 5408 5425 5438 5437 5443 5433 5439 5444 5443 5459 5454 5478 5479 5481 5480 5479 5488 5486 5484 5483 5488 5482 5481 5486 5478 5477 5484 5485 5484 5488 5515 5517 5518 5521 5520
5376 5378 5380 5380 5381 5381 5381 5385 5393 5396 5400 5406 5409 5412 5414 5419 5424 5432 5445 5439 5429 5438 5439 5456 5454 5454 5446 5458 5462 5466 5467 5471 5473 5477 5475 5472 5470 5465 5469 5465 5443 5502 5521 5509 5505 5513 5518
5366 5366 5367 5370 5370 5374 5376 5377 5379 5380 5382 5389 5387 5394 5402 5408 5428 5414 5415 5423 5423 5421 5418 5428 5432 5436 5447 5447 5432 5427 5435 5443 5456 5467 5467 5464 5458 5447 5444 5455 5472 5500 5512 5494 5494 5494 5513
5355 5356 5359 5362 5362 5360 5361 5360 5362 5365 5367 5373 5373 5382 5398 5400 5411 5422 5422 5428 5422 5426 5421 5426 5421 5425 5428 5420 5414 5416 5428 5447 5457 5466 5467 5460 5457 5442 5449 5437 5434 5500 5492 5494 5489 5478 5503
5344 5343 5345 5347 5346 5343 5345 5345 5345 5349 5354 5359 5360 5368 5381 5380 5398 5407 5410 5416 5419 5417 5407 5407 5398 5402 5408 5407 5401 5408 5420 5446 5443 5438 5446 5450 5440 5430 5438 5427 5447 5489 5476 5478 5462 5473 5481
5337 5335 5338 5337 5336 5336 5337 5338 5340 5344 5348 5352 5352 5359 5369 5371 5378 5384 5395 5402 5408 5411 5401 5404 5393 5395 5390 5390 5399 5410 5411 5429 5435 5437 5442 5439 5431 5431 5429 5417 5424 5470 5471 5461 5461 5465 5464
5329 5327 5328 5327 5329 5330 5330 5333 5335 5339 5343 5346 5353 5354 5361 5371 5373 5375 5380 5387 5394 5397 5401 5400 5399 5400 5395 5390 5401 5409 5409 5423 5420 5418 5438 5422 5430 5430 5434 5438 5453 5461 5460 5459 5450 5450 5458